Location: hvezdarna zebrak
(49.8744°N, 13.8989°E)
Time: 18:24:08
(UTC+02:00)

Tiangong - Pass Details

Date: 19 March 2026
Orbit: 376 x 385 km, 41.5° (Epoch: 18 April)

Event Time Altitude Azimuth Distance (km) Brightness Sun altitude
Exits shadow 04:17:59 17° 164° (SSE) 1,051 0.0 -18.4°
Drops below altitude 10° 04:19:38 10° 134° (SE) 1,400 1.0 -18.2°
Sets 04:22:07 0° 114° (ESE) 2,257 2.4 -17.8°
